sat.trackr.live / text

‹ back to catalog

STARLINK-4156

NORAD 53038 · 2022-076BE

PAYLOAD ACTIVE UNKNOWN

§ Identity

Operator
Country
US
Launch date
2022-07-07
Launch site
AFETR
Launch vehicle
Mass (kg)
RCS (m²)

Purposes: comms

External: N2YO · Heavens-Above · Gunter

§ Orbital elements

Epoch: 2026-09-19T15:50:50.904960Z

Period
93.85 min
Inclination
53.1597°
Eccentricity
0.0001399
Mean motion
15.34372485 rev/d
Perigee alt
461.8 km
Apogee alt
463.7 km
Semi-major
6,840.9 km
B*
1.2518e-4
RAAN
277.4792°
Arg perigee
106.4646°
Mean anomaly
253.6510°
Rev number
23,248

§ Raw data

STARLINK-41561 53038U 22076BE  26262.66031140  .00003852  00000+0  12518-3 0  99922 53038  53.1597 277.4792 0001399 106.4646 253.6510 15.34372485232481

JSON: /api/v1/satellites/53038 · /tle

For live sub-satellite position, see the globe view (requires WebGL).

§ Visibility from observer

Set your observer location to see the next 7 days of passes ≥ 10°. The values pass through the URL so the page stays shareable.

No JS? Fill the form by hand. The geolocation button needs JavaScript.